Time,TemperatureF,DewpointF,PressureIn,WindDirection,WindDirectionDegrees,WindSpeedMPH,WindSpeedGustMPH,Humidity,HourlyPrecipIn,Conditions,Clouds,dailyrainin,SoftwareType,DateUTC
2014-01-26 00:02:00,4.5,-15.2,29.42,ENE,68,2.5,4.6,39,0.00,,,0.00,WUHU216TE923,2014-01-26 06:02:00,
2014-01-26 00:07:00,4.5,-15.2,29.42,East,90,3.2,4.6,39,0.00,,,0.00,WUHU216TE923,2014-01-26 06:07:00,
2014-01-26 00:12:00,4.5,-14.7,29.39,NE,45,2.8,4.0,40,0.00,,,0.00,WUHU216TE923,2014-01-26 06:12:00,
2014-01-26 00:17:00,4.5,-14.7,29.39,NE,45,2.0,4.0,40,0.00,,,0.00,WUHU216TE923,2014-01-26 06:17:00,
2014-01-26 00:22:00,4.5,-14.7,29.39,ENE,68,1.9,4.0,40,0.00,,,0.00,WUHU216TE923,2014-01-26 06:22:00,
2014-01-26 00:27:00,4.5,-14.7,29.39,NE,45,2.1,2.5,40,0.00,,,0.00,WUHU216TE923,2014-01-26 06:27:00,
2014-01-26 00:32:00,4.5,-14.7,29.38,ENE,68,2.3,2.9,40,0.00,,,0.00,WUHU216TE923,2014-01-26 06:32:00,
2014-01-26 00:37:00,4.5,-14.7,29.38,ENE,68,2.4,2.9,40,0.00,,,0.00,WUHU216TE923,2014-01-26 06:37:00,
2014-01-26 00:42:00,4.5,-14.7,29.38,ENE,68,2.9,3.5,40,0.00,,,0.00,WUHU216TE923,2014-01-26 06:42:00,
2014-01-26 00:47:00,5.0,-14.2,29.38,ENE,68,2.7,3.5,40,0.00,,,0.00,WUHU216TE923,2014-01-26 06:47:00,
2014-01-26 00:52:00,5.0,-13.7,29.36,ENE,68,2.5,3.5,41,0.00,,,0.00,WUHU216TE923,2014-01-26 06:52:00,
2014-01-26 00:57:00,5.0,-13.7,29.36,ENE,68,3.1,4.9,41,0.00,,,0.00,WUHU216TE923,2014-01-26 06:57:00,
2014-01-26 01:02:00,4.5,-14.2,29.36,ENE,68,3.2,4.9,41,0.00,,,0.00,WUHU216TE923,2014-01-26 07:02:00,
2014-01-26 01:07:00,5.0,-13.7,29.36,East,90,3.2,3.4,41,0.00,,,0.00,WUHU216TE923,2014-01-26 07:07:00,
2014-01-26 01:12:00,5.0,-13.7,29.36,ENE,68,3.0,4.7,41,0.00,,,0.00,WUHU216TE923,2014-01-26 07:12:00,
2014-01-26 01:17:00,5.0,-13.7,29.36,ENE,68,2.3,4.7,41,0.00,,,0.00,WUHU216TE923,2014-01-26 07:17:00,
2014-01-26 01:22:00,5.0,-13.7,29.36,ENE,68,1.9,4.1,41,0.00,,,0.00,WUHU216TE923,2014-01-26 07:22:00,
2014-01-26 01:27:00,5.0,-13.2,29.36,East,90,1.8,4.1,42,0.00,,,0.00,WUHU216TE923,2014-01-26 07:27:00,
2014-01-26 01:32:00,4.5,-13.2,29.37,NNE,23,1.9,3.0,43,0.00,,,0.00,WUHU216TE923,2014-01-26 07:32:00,
2014-01-26 01:37:00,4.5,-12.8,29.37,ENE,68,1.8,3.0,44,0.00,,,0.00,WUHU216TE923,2014-01-26 07:37:00,
2014-01-26 01:42:00,4.5,-12.3,29.37,NE,45,1.4,2.4,45,0.00,,,0.00,WUHU216TE923,2014-01-26 07:42:00,
2014-01-26 01:47:00,4.5,-11.4,29.37,NW,315,1.4,2.4,47,0.00,,,0.00,WUHU216TE923,2014-01-26 07:47:00,
2014-01-26 01:52:00,4.5,-11.0,29.36,NE,45,1.4,1.7,48,0.00,,,0.00,WUHU216TE923,2014-01-26 07:52:00,
2014-01-26 01:57:00,4.5,-10.5,29.36,ENE,68,1.2,1.7,49,0.00,,,0.00,WUHU216TE923,2014-01-26 07:57:00,
2014-01-26 02:02:00,4.5,-10.1,29.36,ENE,68,1.6,1.7,50,0.00,,,0.00,WUHU216TE923,2014-01-26 08:02:00,
2014-01-26 02:07:00,4.5,-9.7,29.36,ENE,68,1.6,1.6,51,0.00,,,0.00,WUHU216TE923,2014-01-26 08:07:00,
2014-01-26 02:12:00,4.6,-9.2,29.34,NE,45,1.4,1.6,52,0.00,,,0.00,WUHU216TE923,2014-01-26 08:12:00,
2014-01-26 02:17:00,4.6,-9.2,29.34,NNE,23,1.3,1.7,52,0.00,,,0.00,WUHU216TE923,2014-01-26 08:17:00,
2014-01-26 02:22:00,4.6,-8.8,29.34,North,0,1.1,1.7,53,0.00,,,0.00,WUHU216TE923,2014-01-26 08:22:00,
2014-01-26 02:27:00,4.6,-8.8,29.34,NE,45,1.0,2.3,53,0.00,,,0.00,WUHU216TE923,2014-01-26 08:27:00,
2014-01-26 02:32:00,4.6,-8.8,29.34,East,90,1.2,2.3,53,0.00,,,0.00,WUHU216TE923,2014-01-26 08:32:00,
2014-01-26 02:37:00,4.6,-8.4,29.34,ENE,68,1.8,3.2,54,0.00,,,0.00,WUHU216TE923,2014-01-26 08:37:00,
2014-01-26 02:42:00,4.6,-8.0,29.34,NNE,23,1.9,3.2,55,0.00,,,0.00,WUHU216TE923,2014-01-26 08:42:00,
2014-01-26 02:47:00,4.6,-8.0,29.34,ENE,68,1.6,1.9,55,0.00,,,0.00,WUHU216TE923,2014-01-26 08:47:00,
2014-01-26 02:52:00,4.6,-8.0,29.32,NNE,23,1.1,1.7,55,0.00,,,0.00,WUHU216TE923,2014-01-26 08:52:00,
2014-01-26 02:57:00,4.6,-8.0,29.32,NNE,23,1.1,1.7,55,0.00,,,0.00,WUHU216TE923,2014-01-26 08:57:00,
2014-01-26 03:02:00,4.6,-8.0,29.32,NE,45,1.5,2.4,55,0.00,,,0.00,WUHU216TE923,2014-01-26 09:02:00,
2014-01-26 03:07:00,4.6,-8.0,29.32,NNW,338,1.0,2.4,55,0.00,,,0.00,WUHU216TE923,2014-01-26 09:07:00,
2014-01-26 03:12:00,4.6,-8.0,29.29,NNE,23,0.6,1.2,55,0.00,,,0.00,WUHU216TE923,2014-01-26 09:12:00,
2014-01-26 03:17:00,4.6,-8.0,29.29,NNE,23,0.4,2.2,55,0.00,,,0.00,WUHU216TE923,2014-01-26 09:17:00,
2014-01-26 03:22:00,4.6,-8.0,29.29,ENE,68,0.6,2.2,55,0.00,,,0.00,WUHU216TE923,2014-01-26 09:22:00,
2014-01-26 03:27:00,4.6,-7.7,29.29,North,0,0.9,2.2,56,0.00,,,0.00,WUHU216TE923,2014-01-26 09:27:00,
2014-01-26 03:32:00,5.0,-7.3,29.27,NE,45,1.1,2.5,56,0.00,,,0.00,WUHU216TE923,2014-01-26 09:32:00,
2014-01-26 03:37:00,5.0,-6.9,29.27,South,180,1.0,2.5,57,0.00,,,0.00,WUHU216TE923,2014-01-26 09:37:00,
2014-01-26 03:42:00,5.0,-6.9,29.27,North,0,0.9,1.4,57,0.00,,,0.00,WUHU216TE923,2014-01-26 09:42:00,
2014-01-26 03:47:00,5.0,-6.9,29.27,ENE,68,0.9,1.4,57,0.00,,,0.00,WUHU216TE923,2014-01-26 09:47:00,
2014-01-26 03:52:00,5.0,-6.9,29.25,NNE,23,1.6,3.7,57,0.00,,,0.00,WUHU216TE923,2014-01-26 09:52:00,
2014-01-26 03:57:00,5.0,-6.9,29.25,NNE,23,2.2,3.7,57,0.00,,,0.00,WUHU216TE923,2014-01-26 09:57:00,
2014-01-26 04:02:00,5.0,-6.9,29.25,North,0,2.3,3.2,57,0.00,,,0.00,WUHU216TE923,2014-01-26 10:02:00,
2014-01-26 04:07:00,5.0,-6.5,29.25,NNE,23,1.7,3.2,58,0.00,,,0.00,WUHU216TE923,2014-01-26 10:07:00,
2014-01-26 04:12:00,5.0,-6.9,29.24,NE,45,1.4,3.1,57,0.00,,,0.00,WUHU216TE923,2014-01-26 10:12:00,
2014-01-26 04:17:00,5.0,-6.9,29.24,ENE,68,1.6,3.1,57,0.00,,,0.00,WUHU216TE923,2014-01-26 10:17:00,
2014-01-26 04:22:00,5.0,-6.9,29.24,ESE,113,1.4,3.1,57,0.00,,,0.00,WUHU216TE923,2014-01-26 10:22:00,
2014-01-26 04:27:00,5.0,-6.9,29.24,NNW,338,0.7,1.8,57,0.00,,,0.00,WUHU216TE923,2014-01-26 10:27:00,
2014-01-26 04:32:00,5.0,-6.9,29.21,North,0,1.2,2.3,57,0.00,,,0.00,WUHU216TE923,2014-01-26 10:32:00,
2014-01-26 04:37:00,5.0,-6.5,29.21,ENE,68,1.6,2.3,58,0.00,,,0.00,WUHU216TE923,2014-01-26 10:37:00,
2014-01-26 04:42:00,5.0,-6.5,29.21,North,0,1.4,1.6,58,0.00,,,0.00,WUHU216TE923,2014-01-26 10:42:00,
2014-01-26 04:47:00,5.0,-6.5,29.21,West,270,1.3,1.6,58,0.00,,,0.00,WUHU216TE923,2014-01-26 10:47:00,
2014-01-26 04:52:00,5.0,-6.5,29.21,NNW,338,1.3,2.5,58,0.00,,,0.00,WUHU216TE923,2014-01-26 10:52:00,
2014-01-26 04:57:00,5.4,-6.2,29.21,ESE,113,0.7,2.5,58,0.00,,,0.00,WUHU216TE923,2014-01-26 10:57:00,
2014-01-26 05:02:00,5.4,-6.2,29.21,ENE,68,0.8,3.4,58,0.00,,,0.00,WUHU216TE923,2014-01-26 11:02:00,
2014-01-26 05:07:00,5.4,-6.2,29.21,NNE,23,1.1,3.4,58,0.00,,,0.00,WUHU216TE923,2014-01-26 11:07:00,
2014-01-26 05:12:00,5.4,-6.2,29.21,NE,45,1.8,3.4,58,0.00,,,0.00,WUHU216TE923,2014-01-26 11:12:00,
2014-01-26 05:17:00,5.4,-6.2,29.21,ENE,68,1.4,2.9,58,0.00,,,0.00,WUHU216TE923,2014-01-26 11:17:00,
2014-01-26 05:22:00,5.4,-6.2,29.21,NE,45,1.0,1.4,58,0.00,,,0.00,WUHU216TE923,2014-01-26 11:22:00,
2014-01-26 05:27:00,5.5,-6.1,29.21,East,90,1.4,1.8,58,0.00,,,0.00,WUHU216TE923,2014-01-26 11:27:00,
2014-01-26 05:32:00,5.5,-6.1,29.20,NE,45,1.3,2.5,58,0.00,,,0.00,WUHU216TE923,2014-01-26 11:32:00,
2014-01-26 05:37:00,5.5,-6.1,29.20,North,0,1.8,2.5,58,0.00,,,0.00,WUHU216TE923,2014-01-26 11:37:00,
2014-01-26 05:42:00,5.5,-5.7,29.20,NNE,23,1.7,2.4,59,0.00,,,0.00,WUHU216TE923,2014-01-26 11:42:00,
2014-01-26 05:47:00,5.5,-5.7,29.20,NW,315,1.3,1.7,59,0.00,,,0.00,WUHU216TE923,2014-01-26 11:47:00,
2014-01-26 05:52:00,5.5,-5.7,29.18,NNW,338,1.6,2.8,59,0.00,,,0.00,WUHU216TE923,2014-01-26 11:52:00,
2014-01-26 05:57:00,5.5,-5.4,29.18,NNE,23,2.1,3.5,60,0.00,,,0.00,WUHU216TE923,2014-01-26 11:57:00,
2014-01-26 06:02:00,5.5,-5.4,29.18,NNE,23,2.2,3.5,60,0.00,,,0.00,WUHU216TE923,2014-01-26 12:02:00,
2014-01-26 06:07:00,5.5,-5.4,29.18,NNW,338,1.4,2.3,60,0.00,,,0.00,WUHU216TE923,2014-01-26 12:07:00,
2014-01-26 06:12:00,5.5,-5.4,29.17,NW,315,1.2,1.4,60,0.00,,,0.00,WUHU216TE923,2014-01-26 12:12:00,
2014-01-26 06:17:00,5.9,-4.6,29.17,ENE,68,1.7,2.3,61,0.00,,,0.00,WUHU216TE923,2014-01-26 12:17:00,
2014-01-26 06:22:00,5.9,-4.6,29.17,NW,315,1.9,2.3,61,0.00,,,0.00,WUHU216TE923,2014-01-26 12:22:00,
2014-01-26 06:27:00,5.9,-4.6,29.17,NE,45,1.4,1.9,61,0.00,,,0.00,WUHU216TE923,2014-01-26 12:27:00,
2014-01-26 06:32:00,5.9,-4.6,29.16,NNW,338,1.2,1.7,61,0.00,,,0.00,WUHU216TE923,2014-01-26 12:32:00,
2014-01-26 06:37:00,5.9,-4.3,29.16,NE,45,1.1,1.7,62,0.00,,,0.00,WUHU216TE923,2014-01-26 12:37:00,
2014-01-26 06:42:00,6.3,-4.2,29.16,NE,45,0.8,1.6,61,0.00,,,0.00,WUHU216TE923,2014-01-26 12:42:00,
2014-01-26 06:47:00,6.3,-4.2,29.16,NE,45,1.1,2.5,61,0.00,,,0.00,WUHU216TE923,2014-01-26 12:47:00,
2014-01-26 06:52:00,6.3,-4.2,29.15,NNE,23,1.1,2.5,61,0.00,,,0.00,WUHU216TE923,2014-01-26 12:52:00,
2014-01-26 06:57:00,6.6,-3.6,29.15,NNW,338,1.0,1.4,62,0.00,,,0.00,WUHU216TE923,2014-01-26 12:57:00,
2014-01-26 07:02:00,6.6,-4.0,29.15,NNW,338,0.4,1.4,61,0.00,,,0.00,WUHU216TE923,2014-01-26 13:02:00,
2014-01-26 07:07:00,6.6,-3.6,29.15,NE,45,0.6,0.6,62,0.00,,,0.00,WUHU216TE923,2014-01-26 13:07:00,
2014-01-26 07:12:00,6.6,-3.6,29.16,ENE,68,0.8,1.7,62,0.00,,,0.00,WUHU216TE923,2014-01-26 13:12:00,
2014-01-26 07:17:00,7.0,-3.2,29.16,NE,45,0.7,2.1,62,0.00,,,0.00,WUHU216TE923,2014-01-26 13:17:00,
2014-01-26 07:22:00,7.0,-3.2,29.16,ENE,68,0.6,2.1,62,0.00,,,0.00,WUHU216TE923,2014-01-26 13:22:00,
2014-01-26 07:27:00,7.3,-3.0,29.16,NE,45,0.6,2.3,62,0.00,,,0.00,WUHU216TE923,2014-01-26 13:27:00,
2014-01-26 07:32:00,7.3,-3.0,29.13,NW,315,1.0,2.3,62,0.00,,,0.00,WUHU216TE923,2014-01-26 13:32:00,
2014-01-26 07:37:00,7.3,-3.0,29.13,NE,45,1.1,1.1,62,0.00,,,0.00,WUHU216TE923,2014-01-26 13:37:00,
2014-01-26 07:42:00,7.3,-3.0,29.13,NE,45,0.6,1.1,62,0.00,,,0.00,WUHU216TE923,2014-01-26 13:42:00,
2014-01-26 07:47:00,7.5,-2.8,29.13,NNE,23,0.6,1.3,62,0.00,,,0.00,WUHU216TE923,2014-01-26 13:47:00,
2014-01-26 07:52:00,7.9,-2.4,29.14,NNE,23,0.7,1.7,62,0.00,,,0.00,WUHU216TE923,2014-01-26 13:52:00,
2014-01-26 07:57:00,7.9,-2.4,29.14,NE,45,0.7,1.7,62,0.00,,,0.00,WUHU216TE923,2014-01-26 13:57:00,
2014-01-26 08:02:00,8.2,-2.1,29.14,NE,45,0.7,1.3,62,0.00,,,0.00,WUHU216TE923,2014-01-26 14:02:00,
2014-01-26 08:07:00,8.6,-1.7,29.14,ESE,113,0.7,1.3,62,0.00,,,0.00,WUHU216TE923,2014-01-26 14:07:00,
2014-01-26 08:12:00,8.2,-2.1,29.14,East,90,1.2,2.0,62,0.00,,,0.00,WUHU216TE923,2014-01-26 14:12:00,
2014-01-26 08:17:00,9.1,-1.2,29.14,ENE,68,0.6,2.0,62,0.00,,,0.00,WUHU216TE923,2014-01-26 14:17:00,
2014-01-26 08:22:00,9.1,-1.2,29.14,ENE,68,0.7,1.7,62,0.00,,,0.00,WUHU216TE923,2014-01-26 14:22:00,
2014-01-26 08:27:00,9.1,-1.6,29.14,ESE,113,1.1,2.7,61,0.00,,,0.00,WUHU216TE923,2014-01-26 14:27:00,
2014-01-26 08:32:00,9.1,-1.6,29.15,ESE,113,1.6,2.7,61,0.00,,,0.00,WUHU216TE923,2014-01-26 14:32:00,
2014-01-26 08:37:00,9.1,-1.6,29.15,SE,135,1.9,2.0,61,0.00,,,0.00,WUHU216TE923,2014-01-26 14:37:00,
2014-01-26 08:42:00,9.5,-1.2,29.15,NNE,23,1.5,1.9,61,0.00,,,0.00,WUHU216TE923,2014-01-26 14:42:00,
2014-01-26 08:47:00,9.5,-1.2,29.15,ENE,68,1.4,2.0,61,0.00,,,0.00,WUHU216TE923,2014-01-26 14:47:00,
2014-01-26 08:52:00,9.9,-0.8,29.15,ENE,68,1.3,2.1,61,0.00,,,0.00,WUHU216TE923,2014-01-26 14:52:00,
2014-01-26 08:57:00,10.2,-0.9,29.15,NNW,338,0.8,2.1,60,0.00,,,0.00,WUHU216TE923,2014-01-26 14:57:00,
2014-01-26 09:02:00,9.9,-1.2,29.15,ESE,113,0.8,2.2,60,0.00,,,0.00,WUHU216TE923,2014-01-26 15:02:00,
2014-01-26 09:07:00,9.9,-1.6,29.15,NNE,23,1.3,2.2,59,0.00,,,0.00,WUHU216TE923,2014-01-26 15:07:00,
2014-01-26 09:12:00,10.4,-1.1,29.12,South,180,1.4,1.4,59,0.00,,,0.00,WUHU216TE923,2014-01-26 15:12:00,
2014-01-26 09:17:00,10.8,-0.7,29.12,NE,45,0.8,1.4,59,0.00,,,0.00,WUHU216TE923,2014-01-26 15:17:00,
2014-01-26 09:22:00,11.1,-0.4,29.12,ENE,68,0.5,1.3,59,0.00,,,0.00,WUHU216TE923,2014-01-26 15:22:00,
2014-01-26 09:27:00,11.1,-0.4,29.12,ESE,113,0.8,1.9,59,0.00,,,0.00,WUHU216TE923,2014-01-26 15:27:00,
2014-01-26 09:32:00,11.7,0.2,29.13,ENE,68,0.9,2.0,59,0.00,,,0.00,WUHU216TE923,2014-01-26 15:32:00,
2014-01-26 09:37:00,12.0,0.4,29.13,SE,135,0.8,2.0,59,0.00,,,0.00,WUHU216TE923,2014-01-26 15:37:00,
2014-01-26 09:42:00,12.4,0.8,29.13,ESE,113,0.8,0.8,59,0.00,,,0.00,WUHU216TE923,2014-01-26 15:42:00,
2014-01-26 09:47:00,12.4,0.8,29.13,ESE,113,0.8,0.8,59,0.00,,,0.00,WUHU216TE923,2014-01-26 15:47:00,
2014-01-26 09:52:00,14.2,2.5,29.14,South,180,0.1,0.1,59,0.00,,,0.00,WUHU216TE923,2014-01-26 15:52:00,
2014-01-26 09:57:00,14.5,2.4,29.14,SE,135,0.4,1.9,58,0.00,,,0.00,WUHU216TE923,2014-01-26 15:57:00,
2014-01-26 10:02:00,14.2,2.1,29.14,ESE,113,0.9,1.9,58,0.00,,,0.00,WUHU216TE923,2014-01-26 16:02:00,
2014-01-26 10:07:00,14.2,1.8,29.14,East,90,1.3,2.5,57,0.00,,,0.00,WUHU216TE923,2014-01-26 16:07:00,
2014-01-26 10:12:00,14.7,2.2,29.13,South,180,0.9,2.5,57,0.00,,,0.00,WUHU216TE923,2014-01-26 16:12:00,
2014-01-26 10:17:00,14.0,1.2,29.13,East,90,0.8,1.0,56,0.00,,,0.00,WUHU216TE923,2014-01-26 16:17:00,
2014-01-26 10:22:00,14.5,2.0,29.13,ENE,68,0.9,2.0,57,0.00,,,0.00,WUHU216TE923,2014-01-26 16:22:00,
2014-01-26 10:27:00,13.6,0.8,29.13,ESE,113,1.3,3.3,56,0.00,,,0.00,WUHU216TE923,2014-01-26 16:27:00,
2014-01-26 10:32:00,14.2,1.8,29.14,ENE,68,1.2,3.3,57,0.00,,,0.00,WUHU216TE923,2014-01-26 16:32:00,
2014-01-26 10:37:00,15.1,2.6,29.14,ENE,68,1.3,1.7,57,0.00,,,0.00,WUHU216TE923,2014-01-26 16:37:00,
2014-01-26 10:42:00,15.6,3.1,29.14,SE,135,1.4,1.7,57,0.00,,,0.00,WUHU216TE923,2014-01-26 16:42:00,
2014-01-26 10:47:00,16.3,3.3,29.14,ENE,68,1.4,2.1,56,0.00,,,0.00,WUHU216TE923,2014-01-26 16:47:00,
2014-01-26 10:52:00,17.8,4.3,29.13,ENE,68,1.3,2.1,55,0.00,,,0.00,WUHU216TE923,2014-01-26 16:52:00,
2014-01-26 10:57:00,19.4,5.4,29.13,South,180,1.0,1.7,54,0.00,,,0.00,WUHU216TE923,2014-01-26 16:57:00,
2014-01-26 11:02:00,17.8,3.1,29.13,ESE,113,1.0,1.9,52,0.00,,,0.00,WUHU216TE923,2014-01-26 17:02:00,
2014-01-26 11:07:00,18.5,3.7,29.13,ESE,113,1.6,3.2,52,0.00,,,0.00,WUHU216TE923,2014-01-26 17:07:00,
2014-01-26 11:12:00,18.3,3.1,29.12,SE,135,1.9,3.2,51,0.00,,,0.00,WUHU216TE923,2014-01-26 17:12:00,
2014-01-26 11:17:00,20.1,4.8,29.12,SE,135,2.0,4.0,51,0.00,,,0.00,WUHU216TE923,2014-01-26 17:17:00,
2014-01-26 11:22:00,20.7,4.9,29.12,NE,45,1.7,4.0,50,0.00,,,0.00,WUHU216TE923,2014-01-26 17:22:00,
2014-01-26 11:27:00,21.7,5.8,29.12,South,180,1.4,1.8,50,0.00,,,0.00,WUHU216TE923,2014-01-26 17:27:00,
2014-01-26 11:32:00,21.6,5.3,29.14,ENE,68,1.2,1.9,49,0.00,,,0.00,WUHU216TE923,2014-01-26 17:32:00,
2014-01-26 11:37:00,21.7,5.8,29.14,East,90,2.0,2.6,50,0.00,,,0.00,WUHU216TE923,2014-01-26 17:37:00,
2014-01-26 11:42:00,22.1,6.7,29.14,WNW,293,2.1,4.1,51,0.00,,,0.00,WUHU216TE923,2014-01-26 17:42:00,
2014-01-26 11:47:00,22.8,6.9,29.14,NW,315,2.0,4.1,50,0.00,,,0.00,WUHU216TE923,2014-01-26 17:47:00,
2014-01-26 11:52:00,23.4,7.4,29.13,ENE,68,2.2,3.0,50,0.00,,,0.00,WUHU216TE923,2014-01-26 17:52:00,
2014-01-26 11:57:00,22.8,6.4,29.13,NE,45,2.8,3.9,49,0.00,,,0.00,WUHU216TE923,2014-01-26 17:57:00,
2014-01-26 12:02:00,23.2,6.8,29.13,WSW,248,2.8,3.9,49,0.00,,,0.00,WUHU216TE923,2014-01-26 18:02:00,
2014-01-26 12:07:00,23.5,7.1,29.13,SE,135,2.9,2.9,49,0.00,,,0.00,WUHU216TE923,2014-01-26 18:07:00,
2014-01-26 12:12:00,23.5,7.1,29.15,South,180,2.6,3.4,49,0.00,,,0.00,WUHU216TE923,2014-01-26 18:12:00,
2014-01-26 12:17:00,23.9,7.0,29.15,West,270,2.6,7.5,48,0.00,,,0.00,WUHU216TE923,2014-01-26 18:17:00,
2014-01-26 12:22:00,24.3,7.8,29.15,ESE,113,2.7,7.5,49,0.00,,,0.00,WUHU216TE923,2014-01-26 18:22:00,
2014-01-26 12:27:00,24.6,7.6,29.15,NNW,338,2.3,2.7,48,0.00,,,0.00,WUHU216TE923,2014-01-26 18:27:00,
2014-01-26 12:32:00,23.7,6.8,29.20,SE,135,2.3,3.3,48,0.00,,,0.00,WUHU216TE923,2014-01-26 18:32:00,
2014-01-26 12:37:00,24.8,7.8,29.20,SW,225,2.1,3.3,48,0.00,,,0.00,WUHU216TE923,2014-01-26 18:37:00,
2014-01-26 12:42:00,25.2,7.7,29.20,ESE,113,2.1,2.4,47,0.00,,,0.00,WUHU216TE923,2014-01-26 18:42:00,
2014-01-26 12:47:00,25.9,8.3,29.20,SSE,158,1.7,2.4,47,0.00,,,0.00,WUHU216TE923,2014-01-26 18:47:00,
2014-01-26 12:52:00,25.7,7.6,29.20,NW,315,1.6,2.3,46,0.00,,,0.00,WUHU216TE923,2014-01-26 18:52:00,
2014-01-26 12:57:00,26.4,8.3,29.20,ENE,68,1.9,4.0,46,0.00,,,0.00,WUHU216TE923,2014-01-26 18:57:00,
2014-01-26 13:02:00,26.6,8.5,29.20,ENE,68,1.8,4.0,46,0.00,,,0.00,WUHU216TE923,2014-01-26 19:02:00,
2014-01-26 13:07:00,27.1,8.9,29.20,East,90,1.4,1.8,46,0.00,,,0.00,WUHU216TE923,2014-01-26 19:07:00,
2014-01-26 13:12:00,26.1,8.0,29.20,East,90,1.3,2.9,46,0.00,,,0.00,WUHU216TE923,2014-01-26 19:12:00,
2014-01-26 13:17:00,26.8,9.1,29.20,ENE,68,1.6,2.9,47,0.00,,,0.00,WUHU216TE923,2014-01-26 19:17:00,
2014-01-26 13:22:00,26.6,9.0,29.20,WSW,248,1.9,2.1,47,0.00,,,0.00,WUHU216TE923,2014-01-26 19:22:00,
2014-01-26 13:27:00,27.3,9.6,29.20,NNW,338,1.5,1.9,47,0.00,,,0.00,WUHU216TE923,2014-01-26 19:27:00,
2014-01-26 13:32:00,26.8,9.1,29.20,NNE,23,1.4,2.4,47,0.00,,,0.00,WUHU216TE923,2014-01-26 19:32:00,
2014-01-26 13:37:00,27.1,8.9,29.20,NW,315,1.5,2.4,46,0.00,,,0.00,WUHU216TE923,2014-01-26 19:37:00,
2014-01-26 13:42:00,28.0,10.2,29.11,NE,45,1.4,1.8,47,0.00,,,0.00,WUHU216TE923,2014-01-26 19:42:00,
2014-01-26 13:47:00,28.4,10.1,29.11,WNW,293,1.2,2.7,46,0.00,,,0.00,WUHU216TE923,2014-01-26 19:47:00,
2014-01-26 13:52:00,29.5,11.1,29.10,West,270,1.1,2.7,46,0.00,,,0.00,WUHU216TE923,2014-01-26 19:52:00,
2014-01-26 13:57:00,28.0,8.7,29.10,North,0,1.0,2.2,44,0.00,,,0.00,WUHU216TE923,2014-01-26 19:57:00,
2014-01-26 14:02:00,28.0,8.7,29.10,West,270,1.3,2.7,44,0.00,,,0.00,WUHU216TE923,2014-01-26 20:02:00,
2014-01-26 14:07:00,27.3,8.6,29.10,NNW,338,1.6,2.7,45,0.00,,,0.00,WUHU216TE923,2014-01-26 20:07:00,
2014-01-26 14:12:00,27.1,8.4,29.12,WSW,248,1.9,2.4,45,0.00,,,0.00,WUHU216TE923,2014-01-26 20:12:00,
2014-01-26 14:17:00,26.6,8.5,29.12,NW,315,2.2,2.8,46,0.00,,,0.00,WUHU216TE923,2014-01-26 20:17:00,
2014-01-26 14:22:00,27.3,9.1,29.12,SSE,158,2.0,3.5,46,0.00,,,0.00,WUHU216TE923,2014-01-26 20:22:00,
2014-01-26 14:27:00,26.8,8.7,29.12,South,180,1.6,3.5,46,0.00,,,0.00,WUHU216TE923,2014-01-26 20:27:00,
2014-01-26 14:32:00,26.8,8.1,29.09,NNE,23,2.1,3.0,45,0.00,,,0.00,WUHU216TE923,2014-01-26 20:32:00,
2014-01-26 14:37:00,27.3,8.6,29.09,ENE,68,2.5,5.2,45,0.00,,,0.00,WUHU216TE923,2014-01-26 20:37:00,
2014-01-26 14:42:00,27.1,7.9,29.09,North,0,2.5,5.2,44,0.00,,,0.00,WUHU216TE923,2014-01-26 20:42:00,
2014-01-26 14:47:00,27.3,8.6,29.09,NNE,23,2.2,2.5,45,0.00,,,0.00,WUHU216TE923,2014-01-26 20:47:00,
2014-01-26 14:52:00,27.3,9.1,29.13,NNE,23,1.9,2.2,46,0.00,,,0.00,WUHU216TE923,2014-01-26 20:52:00,
2014-01-26 14:57:00,25.9,7.8,29.13,West,270,2.5,2.5,46,0.00,,,0.00,WUHU216TE923,2014-01-26 20:57:00,
2014-01-26 15:02:00,25.7,8.1,29.13,ENE,68,2.5,3.7,47,0.00,,,0.00,WUHU216TE923,2014-01-26 21:02:00,
2014-01-26 15:07:00,25.5,8.4,29.13,NNW,338,2.3,3.7,48,0.00,,,0.00,WUHU216TE923,2014-01-26 21:07:00,
2014-01-26 15:12:00,25.0,8.4,29.14,WSW,248,2.8,5.0,49,0.00,,,0.00,WUHU216TE923,2014-01-26 21:12:00,
2014-01-26 15:17:00,24.3,7.3,29.14,ENE,68,3.7,5.1,48,0.00,,,0.00,WUHU216TE923,2014-01-26 21:17:00,
2014-01-26 15:22:00,24.8,8.3,29.14,ESE,113,3.6,5.1,49,0.00,,,0.00,WUHU216TE923,2014-01-26 21:22:00,
2014-01-26 15:27:00,24.4,7.9,29.14,SSE,158,2.8,3.6,49,0.00,,,0.00,WUHU216TE923,2014-01-26 21:27:00,
2014-01-26 15:32:00,24.1,8.5,29.13,ENE,68,2.7,3.6,51,0.00,,,0.00,WUHU216TE923,2014-01-26 21:32:00,
2014-01-26 15:37:00,24.1,9.4,29.13,SSE,158,2.9,3.6,53,0.00,,,0.00,WUHU216TE923,2014-01-26 21:37:00,
2014-01-26 15:42:00,23.7,9.0,29.13,ENE,68,2.6,3.9,53,0.00,,,0.00,WUHU216TE923,2014-01-26 21:42:00,
2014-01-26 15:47:00,23.9,9.6,29.13,ESE,113,2.6,6.0,54,0.00,,,0.00,WUHU216TE923,2014-01-26 21:47:00,
2014-01-26 15:52:00,23.5,9.3,29.15,East,90,3.0,7.9,54,0.00,,,0.00,WUHU216TE923,2014-01-26 21:52:00,
2014-01-26 15:57:00,23.4,9.2,29.15,West,270,3.8,7.9,54,0.00,,,0.00,WUHU216TE923,2014-01-26 21:57:00,
2014-01-26 16:02:00,23.4,9.6,29.15,SW,225,4.1,7.6,55,0.00,,,0.00,WUHU216TE923,2014-01-26 22:02:00,
2014-01-26 16:07:00,23.2,9.8,29.15,ESE,113,3.6,7.5,56,0.00,,,0.00,WUHU216TE923,2014-01-26 22:07:00,
2014-01-26 16:12:00,22.8,9.8,29.15,NNE,23,3.0,7.5,57,0.00,,,0.00,WUHU216TE923,2014-01-26 22:12:00,
2014-01-26 16:17:00,22.8,9.8,29.15,NNE,23,2.9,3.2,57,0.00,,,0.00,WUHU216TE923,2014-01-26 22:17:00,
2014-01-26 16:22:00,22.6,10.1,29.15,SW,225,2.6,2.9,58,0.00,,,0.00,WUHU216TE923,2014-01-26 22:22:00,
2014-01-26 16:27:00,22.8,10.2,29.15,ESE,113,2.5,5.6,58,0.00,,,0.00,WUHU216TE923,2014-01-26 22:27:00,
2014-01-26 16:32:00,22.6,10.4,29.16,ENE,68,2.4,5.6,59,0.00,,,0.00,WUHU216TE923,2014-01-26 22:32:00,
2014-01-26 16:37:00,22.3,10.2,29.16,NNW,338,2.6,3.8,59,0.00,,,0.00,WUHU216TE923,2014-01-26 22:37:00,
2014-01-26 16:42:00,22.3,10.5,29.16,West,270,2.6,4.0,60,0.00,,,0.00,WUHU216TE923,2014-01-26 22:42:00,
2014-01-26 16:47:00,22.1,10.4,29.16,NW,315,2.6,4.0,60,0.00,,,0.00,WUHU216TE923,2014-01-26 22:47:00,
2014-01-26 16:52:00,22.1,10.4,29.17,WSW,248,2.7,4.7,60,0.00,,,0.00,WUHU216TE923,2014-01-26 22:52:00,
2014-01-26 16:57:00,21.7,10.0,29.17,SE,135,2.4,4.7,60,0.00,,,0.00,WUHU216TE923,2014-01-26 22:57:00,
2014-01-26 17:02:00,21.7,10.0,29.17,NE,45,2.4,6.2,60,0.00,,,0.00,WUHU216TE923,2014-01-26 23:02:00,
2014-01-26 17:07:00,21.7,10.0,29.17,North,0,2.7,6.2,60,0.00,,,0.00,WUHU216TE923,2014-01-26 23:07:00,
2014-01-26 17:12:00,21.6,9.5,29.19,NW,315,2.9,4.1,59,0.00,,,0.00,WUHU216TE923,2014-01-26 23:12:00,
2014-01-26 17:17:00,21.6,9.5,29.19,North,0,2.5,4.1,59,0.00,,,0.00,WUHU216TE923,2014-01-26 23:17:00,
2014-01-26 17:22:00,21.6,9.5,29.19,NNE,23,2.8,5.7,59,0.00,,,0.00,WUHU216TE923,2014-01-26 23:22:00,
2014-01-26 17:27:00,21.2,8.7,29.19,ENE,68,3.5,5.7,58,0.00,,,0.00,WUHU216TE923,2014-01-26 23:27:00,
2014-01-26 17:32:00,21.0,8.5,29.20,North,0,3.4,3.5,58,0.00,,,0.00,WUHU216TE923,2014-01-26 23:32:00,
2014-01-26 17:37:00,20.7,8.7,29.20,SW,225,2.2,3.4,59,0.00,,,0.00,WUHU216TE923,2014-01-26 23:37:00,
2014-01-26 17:42:00,20.5,9.2,29.20,SSE,158,2.3,3.8,61,0.00,,,0.00,WUHU216TE923,2014-01-26 23:42:00,
2014-01-26 17:47:00,20.7,9.8,29.20,NNE,23,3.4,5.8,62,0.00,,,0.00,WUHU216TE923,2014-01-26 23:47:00,
2014-01-26 17:52:00,20.7,9.4,29.21,ENE,68,3.9,5.8,61,0.00,,,0.00,WUHU216TE923,2014-01-26 23:52:00,
2014-01-26 17:57:00,20.1,7.7,29.21,ESE,113,4.4,4.4,58,0.00,,,0.00,WUHU216TE923,2014-01-26 23:57:00,
2014-01-26 18:02:00,20.1,6.9,29.21,SSW,203,4.1,6.3,56,0.00,,,0.00,WUHU216TE923,2014-01-27 00:02:00,
2014-01-26 18:07:00,19.9,5.9,29.21,NNE,23,3.6,7.8,54,0.00,,,0.00,WUHU216TE923,2014-01-27 00:07:00,
2014-01-26 18:12:00,19.4,5.0,29.23,WSW,248,4.4,8.6,53,0.00,,,0.00,WUHU216TE923,2014-01-27 00:12:00,
2014-01-26 18:17:00,19.0,5.1,29.23,NNE,23,5.3,8.6,54,0.00,,,0.00,WUHU216TE923,2014-01-27 00:17:00,
2014-01-26 18:22:00,19.4,5.0,29.23,WSW,248,4.8,6.4,53,0.00,,,0.00,WUHU216TE923,2014-01-27 00:22:00,
2014-01-26 18:27:00,19.0,4.6,29.23,ESE,113,3.7,6.4,53,0.00,,,0.00,WUHU216TE923,2014-01-27 00:27:00,
2014-01-26 18:32:00,18.5,3.7,29.24,NNE,23,4.3,5.8,52,0.00,,,0.00,WUHU216TE923,2014-01-27 00:32:00,
2014-01-26 18:37:00,18.3,2.2,29.24,ENE,68,4.9,5.4,49,0.00,,,0.00,WUHU216TE923,2014-01-27 00:37:00,
2014-01-26 18:42:00,17.8,1.3,29.24,NNE,23,4.7,7.0,48,0.00,,,0.00,WUHU216TE923,2014-01-27 00:42:00,
2014-01-26 18:47:00,16.2,-1.6,29.24,South,180,5.2,7.4,45,0.00,,,0.00,WUHU216TE923,2014-01-27 00:47:00,
2014-01-26 18:52:00,15.8,-2.9,29.26,West,270,5.2,7.4,43,0.00,,,0.00,WUHU216TE923,2014-01-27 00:52:00,
2014-01-26 18:57:00,15.1,-4.6,29.26,NE,45,4.5,6.5,41,0.00,,,0.00,WUHU216TE923,2014-01-27 00:57:00,
2014-01-26 19:02:00,14.2,-5.9,29.26,WNW,293,4.6,10.2,40,0.00,,,0.00,WUHU216TE923,2014-01-27 01:02:00,
2014-01-26 19:07:00,13.8,-6.8,29.26,SE,135,4.4,10.2,39,0.00,,,0.00,WUHU216TE923,2014-01-27 01:07:00,
2014-01-26 19:12:00,13.3,-7.8,29.29,SE,135,4.5,8.2,38,0.00,,,0.00,WUHU216TE923,2014-01-27 01:12:00,
2014-01-26 19:17:00,12.9,-9.3,29.29,NNW,338,5.2,8.2,36,0.00,,,0.00,WUHU216TE923,2014-01-27 01:17:00,
2014-01-26 19:22:00,12.7,-8.9,29.29,NNE,23,5.6,10.8,37,0.00,,,0.00,WUHU216TE923,2014-01-27 01:22:00,
2014-01-26 19:27:00,12.0,-9.5,29.29,NNW,338,5.6,10.8,37,0.00,,,0.00,WUHU216TE923,2014-01-27 01:27:00,
2014-01-26 19:32:00,12.0,-10.1,29.29,NE,45,5.7,8.0,36,0.00,,,0.00,WUHU216TE923,2014-01-27 01:32:00,
2014-01-26 19:37:00,11.7,-10.9,29.29,NNW,338,5.8,8.0,35,0.00,,,0.00,WUHU216TE923,2014-01-27 01:37:00,
2014-01-26 19:42:00,11.7,-11.5,29.29,ENE,68,5.3,7.9,34,0.00,,,0.00,WUHU216TE923,2014-01-27 01:42:00,
2014-01-26 19:47:00,11.3,-12.4,29.29,SW,225,4.4,5.3,33,0.00,,,0.00,WUHU216TE923,2014-01-27 01:47:00,
2014-01-26 19:52:00,11.3,-12.4,29.30,NNE,23,3.8,7.1,33,0.00,,,0.00,WUHU216TE923,2014-01-27 01:52:00,
2014-01-26 19:57:00,10.9,-12.8,29.30,NW,315,3.7,7.1,33,0.00,,,0.00,WUHU216TE923,2014-01-27 01:57:00,
2014-01-26 20:02:00,10.8,-12.3,29.30,North,0,3.5,4.4,34,0.00,,,0.00,WUHU216TE923,2014-01-27 02:02:00,
2014-01-26 20:07:00,10.8,-12.3,29.30,ENE,68,3.3,4.1,34,0.00,,,0.00,WUHU216TE923,2014-01-27 02:07:00,
2014-01-26 20:12:00,10.8,-12.3,29.31,ENE,68,3.1,6.3,34,0.00,,,0.00,WUHU216TE923,2014-01-27 02:12:00,
2014-01-26 20:17:00,10.8,-12.3,29.31,SSE,158,3.4,6.9,34,0.00,,,0.00,WUHU216TE923,2014-01-27 02:17:00,
2014-01-26 20:22:00,10.0,-13.0,29.31,SW,225,3.0,6.9,34,0.00,,,0.00,WUHU216TE923,2014-01-27 02:22:00,
2014-01-26 20:27:00,10.4,-11.5,29.31,ESE,113,3.4,5.1,36,0.00,,,0.00,WUHU216TE923,2014-01-27 02:27:00,
2014-01-26 20:32:00,10.4,-11.5,29.32,North,0,3.4,5.1,36,0.00,,,0.00,WUHU216TE923,2014-01-27 02:32:00,
2014-01-26 20:37:00,9.9,-8.8,29.32,NE,45,3.7,7.0,42,0.00,,,0.00,WUHU216TE923,2014-01-27 02:37:00,
2014-01-26 20:42:00,9.5,-6.8,29.32,WSW,248,4.2,7.0,47,0.00,,,0.00,WUHU216TE923,2014-01-27 02:42:00,
2014-01-26 20:47:00,9.1,-7.2,29.32,WSW,248,4.6,7.5,47,0.00,,,0.00,WUHU216TE923,2014-01-27 02:47:00,
2014-01-26 20:52:00,8.8,-9.3,29.35,ESE,113,4.7,7.9,43,0.00,,,0.00,WUHU216TE923,2014-01-27 02:52:00,
2014-01-26 20:57:00,8.4,-10.6,29.35,NW,315,5.0,7.9,41,0.00,,,0.00,WUHU216TE923,2014-01-27 02:57:00,
2014-01-26 21:02:00,8.4,-10.6,29.35,WNW,293,4.3,5.5,41,0.00,,,0.00,WUHU216TE923,2014-01-27 03:02:00,
2014-01-26 21:07:00,7.5,-11.5,29.35,NW,315,5.1,5.1,41,0.00,,,0.00,WUHU216TE923,2014-01-27 03:07:00,
2014-01-26 21:12:00,7.2,-12.2,29.39,WSW,248,5.9,8.9,40,0.00,,,0.00,WUHU216TE923,2014-01-27 03:12:00,
2014-01-26 21:17:00,6.6,-11.8,29.39,SE,135,6.6,8.9,42,0.00,,,0.00,WUHU216TE923,2014-01-27 03:17:00,
2014-01-26 21:22:00,6.6,-11.8,29.39,WNW,293,6.6,8.4,42,0.00,,,0.00,WUHU216TE923,2014-01-27 03:22:00,
2014-01-26 21:27:00,6.6,-11.8,29.39,NE,45,5.7,8.4,42,0.00,,,0.00,WUHU216TE923,2014-01-27 03:27:00,
2014-01-26 21:32:00,6.3,-12.1,29.40,NNW,338,6.2,6.9,42,0.00,,,0.00,WUHU216TE923,2014-01-27 03:32:00,
2014-01-26 21:37:00,6.3,-12.1,29.40,West,270,5.6,7.5,42,0.00,,,0.00,WUHU216TE923,2014-01-27 03:37:00,
2014-01-26 21:42:00,6.3,-11.6,29.40,South,180,5.1,7.5,43,0.00,,,0.00,WUHU216TE923,2014-01-27 03:42:00,
2014-01-26 21:47:00,5.5,-11.4,29.40,NW,315,5.0,6.6,45,0.00,,,0.00,WUHU216TE923,2014-01-27 03:47:00,
2014-01-26 21:52:00,5.4,-10.1,29.43,North,0,4.8,5.7,48,0.00,,,0.00,WUHU216TE923,2014-01-27 03:52:00,
2014-01-26 21:57:00,5.4,-8.9,29.43,North,0,4.8,4.8,51,0.00,,,0.00,WUHU216TE923,2014-01-27 03:57:00,
2014-01-26 22:02:00,5.0,-8.8,29.43,SE,135,4.7,4.8,52,0.00,,,0.00,WUHU216TE923,2014-01-27 04:02:00,
2014-01-26 22:07:00,5.0,-8.0,29.43,ENE,68,5.1,6.9,54,0.00,,,0.00,WUHU216TE923,2014-01-27 04:07:00,
2014-01-26 22:12:00,5.0,-7.7,29.44,SE,135,6.2,15.4,55,0.00,,,0.00,WUHU216TE923,2014-01-27 04:12:00,
2014-01-26 22:17:00,4.5,-7.7,29.44,ENE,68,5.6,15.4,56,0.00,,,0.00,WUHU216TE923,2014-01-27 04:17:00,
2014-01-26 22:22:00,4.5,-7.7,29.44,NNE,23,4.8,5.7,56,0.00,,,0.00,WUHU216TE923,2014-01-27 04:22:00,
2014-01-26 22:27:00,4.1,-8.1,29.44,ENE,68,4.9,5.7,56,0.00,,,0.00,WUHU216TE923,2014-01-27 04:27:00,
2014-01-26 22:32:00,3.6,-9.0,29.47,WNW,293,5.4,7.5,55,0.00,,,0.00,WUHU216TE923,2014-01-27 04:32:00,
2014-01-26 22:37:00,3.6,-8.6,29.47,NE,45,5.3,7.5,56,0.00,,,0.00,WUHU216TE923,2014-01-27 04:37:00,
2014-01-26 22:42:00,3.6,-8.6,29.47,ESE,113,5.5,12.5,56,0.00,,,0.00,WUHU216TE923,2014-01-27 04:42:00,
2014-01-26 22:47:00,3.0,-9.2,29.47,SE,135,5.1,12.5,56,0.00,,,0.00,WUHU216TE923,2014-01-27 04:47:00,
2014-01-26 22:52:00,3.0,-9.5,29.49,West,270,5.2,11.9,55,0.00,,,0.00,WUHU216TE923,2014-01-27 04:52:00,
2014-01-26 22:57:00,2.7,-9.8,29.49,WSW,248,5.1,11.9,55,0.00,,,0.00,WUHU216TE923,2014-01-27 04:57:00,
2014-01-26 23:01:00,2.7,-9.8,29.49,WSW,248,5.1,11.9,55,0.00,,,0.00,WUHU216TE923,2014-01-27 05:01:00,
2014-01-26 23:06:00,2.7,-11.0,29.49,WNW,293,5.8,10.3,52,0.00,,,0.00,WUHU216TE923,2014-01-27 05:06:00,
2014-01-26 23:11:00,2.7,-11.8,29.51,ESE,113,6.5,10.3,50,0.00,,,0.00,WUHU216TE923,2014-01-27 05:11:00,
2014-01-26 23:16:00,2.1,-12.8,29.51,NW,315,5.0,8.8,49,0.00,,,0.00,WUHU216TE923,2014-01-27 05:16:00,
2014-01-26 23:21:00,2.1,-13.2,29.51,South,180,4.7,5.0,48,0.00,,,0.00,WUHU216TE923,2014-01-27 05:21:00,
2014-01-26 23:26:00,1.6,-13.6,29.51,NW,315,4.3,4.7,48,0.00,,,0.00,WUHU216TE923,2014-01-27 05:26:00,
2014-01-26 23:31:00,1.0,-14.2,29.54,ENE,68,3.3,4.3,48,0.00,,,0.00,WUHU216TE923,2014-01-27 05:31:00,
2014-01-26 23:36:00,1.0,-14.2,29.54,NNW,338,3.1,4.7,48,0.00,,,0.00,WUHU216TE923,2014-01-27 05:36:00,
2014-01-26 23:41:00,0.7,-14.5,29.54,WNW,293,3.8,4.7,48,0.00,,,0.00,WUHU216TE923,2014-01-27 05:41:00,
2014-01-26 23:46:00,0.7,-14.9,29.54,WSW,248,3.5,6.9,47,0.00,,,0.00,WUHU216TE923,2014-01-27 05:46:00,
2014-01-26 23:51:00,0.7,-14.9,29.54,NW,315,3.5,7.1,47,0.00,,,0.00,WUHU216TE923,2014-01-27 05:51:00,
2014-01-26 23:56:00,0.1,-15.9,29.54,ENE,68,3.7,7.1,46,0.00,,,0.00,WUHU216TE923,2014-01-27 05:56:00,